Regional Weather Roundup
Issued by NWS State College, PA

Home | Current Version | Previous Version | Text Only | Print | Product List | Glossary On
Versions: 1 2 3 4 5 6 7 8 9 10 11 12 13 14 15 16 17 18 19 20 21 22 23 24 25 26 27 28 29 30 31 32 33 34 35 36 37 38 39 40 41 42 43 44 45 46 47 48 49 50
000
ASUS41 KCTP 280210
RWRCTP

REGIONAL WEATHER ROUNDUP
NATIONAL WEATHER SERVICE STATE COLLEGE PA
1000 PM EDT TUE JUN 27 2017

Note: "fair" indicates few or no clouds below 12,000 feet with no
significant weather and/or obstructions to visibility.

* = STATION THAT DOES NOT REPORT PRECIPITATION /E.G. RAIN...SNOW...ETC/
    THUNDER OR FOG.

PAZ002>004-007>009-013>016-020>023-029>032-280300-
WESTERN PENNSYLVANIA

CITY           SKY/WX    TMP DP  RH WIND       PRES   REMARKS
ERIE           PTCLDY    60  48  64 S6        30.06R
MEADVILLE      CLEAR     58  46  64 SW3       30.09R
FRANKLIN*      CLEAR     54  45  71 CALM      30.10R
NEW CASTLE     FAIR      52  49  89 CALM      30.10R
BEAVER COUNTY  NOT AVBL
BUTLER*        CLEAR     55  46  71 CALM      30.10R
PITTSBURGH INT PTCLDY    61  48  62 W3        30.10R
PITTSBURGH     CLEAR     62  43  49 W5        30.10R
INDIANA*       CLEAR     55  50  82 CALM      30.13R
LATROBE        PTCLDY    59  50  72 CALM      30.11R
WASHINGTON CO* CLEAR     52  48  87 CALM      30.13R
$$

PAZ004>006-010>012-017>019-024>028-033>037-041-042-045-046-049>053-280300-
CENTRAL PENNSYLVANIA

CITY           SKY/WX    TMP DP  RH WIND       PRES   REMARKS
BRADFORD       CLEAR     48  48 100 CALM      30.09R
DUBOIS         CLEAR     52  46  80 SW3       30.09R
CLEARFIELD     CLEAR     56  49  77 CALM      30.10R
JOHNSTOWN      PTCLDY    56  47  71 NW8       30.11R
ALTOONA        CLEAR     57  49  74 NW3       30.10R
STATE COLLEGE  NOT AVBL
WILLIAMSPORT   CLEAR     59  54  83 W3        30.04R
SELINSGROVE    PTCLDY    60  52  74 CALM      30.06R
FT INDIANTOWN  CLEAR     64  48  55 W5        30.05R
CAPITAL CITY   CLEAR     66  46  48 NW3       30.06R
HARRISBURG     PTCLDY    66  48  52 NW13      30.04R
YORK           CLEAR     59  51  75 CALM      30.06R
$$

PAZ038>040-043-044-047-048-054-055-060>062-067>071-280300-
EASTERN PENNSYLVANIA

CITY           SKY/WX    TMP DP  RH WIND       PRES   REMARKS
SCRANTON       CLOUDY    63  47  55 W7        30.03R
MOUNT POCONO   CLEAR     55  47  74 NW8       30.03R
ALLENTOWN      CLEAR     66  46  48 NW7       30.01R
QUAKERTOWN*    PTCLDY    66  46  48 W3        30.03R
READING        CLEAR     65  50  58 NW13      30.02R
LANCASTER      CLEAR     66  48  52 NW10      30.04R
COATESVILLE    NOT AVBL
POTTSTOWN      CLEAR     65  46  50 NW5       30.03R
BLUE BELL      NOT AVBL
DOYLESTOWN     PTCLDY    67  47  48 W7        30.00R
WILLOW GROVE   NOT AVBL
NORTH PHILA    CLEAR     71  48  43 NW8       30.01R
PHILADELPHIA   PTCLDY    73  47  39 NW9       30.01R
$$




USA.gov is the U.S. government's official web portal to all federal, state and local government web resources and services.